FAB2018 SBCO-SBPO

Flight info

Callsign FAB2018
Flight time 1h 2m
Altitude 22000
Route RNAV NIRTI 1E TRANS NOBEL R563 MAGNA DCT
Aircraft C97/L-V/N

Departure

Time 2026-04-14 12:52
Airport Canoas Air Force Base (SBCO)

Arrival

Time 2026-04-14 13:54
Airport Juvenal Loureiro Cardoso Airport (SBPO)
Time Latitude Longitude Altitude Speed Heading
2026-04-14 12:45 -29.94163 -51.14770 32 ft 0 kts 161°
2026-04-14 12:48 -29.94169 -51.14768 32 ft 8 kts 161°
2026-04-14 12:48 -29.94209 -51.14765 32 ft 7 kts 231°
2026-04-14 12:49 -29.94237 -51.14882 32 ft 14 kts 281°
2026-04-14 12:49 -29.94203 -51.14998 32 ft 16 kts 290°
2026-04-14 12:49 -29.94168 -51.15109 32 ft 16 kts 289°
2026-04-14 12:49 -29.94132 -51.15226 32 ft 14 kts 289°
2026-04-14 12:50 -29.94097 -51.15341 32 ft 15 kts 290°
2026-04-14 12:50 -29.94027 -51.15566 32 ft 15 kts 289°
2026-04-14 12:50 -29.94001 -51.15673 32 ft 9 kts 253°
2026-04-14 12:51 -29.94062 -51.15717 32 ft 19 kts 200°
2026-04-14 12:51 -29.94166 -51.15747 32 ft 14 kts 154°
2026-04-14 12:51 -29.94188 -51.15706 32 ft 0 kts 110°
2026-04-14 12:51 -29.94219 -51.15608 32 ft 51 kts 109°
2026-04-14 12:52 -29.94434 -51.14914 60 ft 116 kts 110°
2026-04-14 12:52 -29.94728 -51.13994 427 ft 140 kts 111°
2026-04-14 12:52 -29.95094 -51.12847 849 ft 160 kts 109°
2026-04-14 12:52 -29.95463 -51.11587 1253 ft 171 kts 109°
2026-04-14 12:53 -29.95861 -51.10273 1641 ft 181 kts 109°
2026-04-14 12:53 -29.96281 -51.08855 2030 ft 189 kts 104°
2026-04-14 12:53 -29.96242 -51.07339 2401 ft 196 kts 73°
2026-04-14 12:53 -29.95508 -51.06011 2796 ft 200 kts 45°
2026-04-14 12:54 -29.94425 -51.04988 3188 ft 205 kts 36°
2026-04-14 12:54 -29.93228 -51.04048 3573 ft 210 kts 33°
2026-04-14 12:54 -29.91994 -51.03091 3958 ft 214 kts 33°
2026-04-14 12:54 -29.90767 -51.02101 4336 ft 217 kts 34°
2026-04-14 12:55 -29.89538 -51.01067 4714 ft 220 kts 34°
2026-04-14 12:55 -29.88304 -50.99995 5091 ft 223 kts 34°
2026-04-14 12:55 -29.87073 -50.98902 5465 ft 226 kts 34°
2026-04-14 12:55 -29.85825 -50.97780 5840 ft 229 kts 34°
2026-04-14 12:56 -29.84554 -50.96631 6217 ft 233 kts 34°
2026-04-14 12:56 -29.83277 -50.95474 6590 ft 237 kts 34°
2026-04-14 12:56 -29.81964 -50.94284 6971 ft 241 kts 34°
2026-04-14 12:56 -29.80604 -50.93155 7340 ft 241 kts 24°
2026-04-14 12:57 -29.79048 -50.92500 7729 ft 238 kts
2026-04-14 12:57 -29.77412 -50.92184 8079 ft 240 kts
2026-04-14 12:57 -29.75730 -50.92047 8335 ft 246 kts 358°
2026-04-14 12:57 -29.73981 -50.92005 8593 ft 252 kts 355°
2026-04-14 12:58 -29.72238 -50.92012 8843 ft 257 kts 355°
2026-04-14 12:58 -29.70418 -50.92042 9100 ft 262 kts 354°
2026-04-14 12:58 -29.68597 -50.92082 9351 ft 265 kts 354°
2026-04-14 12:58 -29.66757 -50.92125 9601 ft 268 kts 354°
2026-04-14 12:59 -29.64916 -50.92168 9849 ft 269 kts 354°
2026-04-14 12:59 -29.62999 -50.92213 10105 ft 271 kts 354°
2026-04-14 12:59 -29.61100 -50.92256 10357 ft 272 kts 354°
2026-04-14 12:59 -29.59197 -50.92299 10608 ft 273 kts 354°
2026-04-14 13:00 -29.57308 -50.92341 10856 ft 274 kts 354°
2026-04-14 13:00 -29.55385 -50.92383 11108 ft 275 kts 354°
2026-04-14 13:00 -29.53481 -50.92424 11357 ft 276 kts 354°
2026-04-14 13:00 -29.51565 -50.92466 11607 ft 277 kts 354°
2026-04-14 13:01 -29.49623 -50.92508 11859 ft 277 kts 354°
2026-04-14 13:01 -29.47681 -50.92550 12111 ft 278 kts 354°
2026-04-14 13:01 -29.45761 -50.92592 12359 ft 279 kts 354°
2026-04-14 13:01 -29.43804 -50.92635 12611 ft 280 kts 354°
2026-04-14 13:02 -29.41873 -50.92676 12859 ft 280 kts 354°
2026-04-14 13:02 -29.39918 -50.92719 13110 ft 281 kts 354°
2026-04-14 13:02 -29.37949 -50.92762 13361 ft 282 kts 354°
2026-04-14 13:02 -29.35974 -50.92804 13613 ft 283 kts 354°
2026-04-14 13:03 -29.34024 -50.92847 13861 ft 283 kts 354°
2026-04-14 13:03 -29.32048 -50.92950 14108 ft 281 kts 347°
2026-04-14 13:03 -29.30270 -50.93695 14354 ft 273 kts 324°
2026-04-14 13:03 -29.28861 -50.95130 14617 ft 268 kts 308°
2026-04-14 13:04 -29.27784 -50.96847 14871 ft 267 kts 300°
2026-04-14 13:04 -29.26869 -50.98705 15125 ft 267 kts 295°
2026-04-14 13:04 -29.26041 -51.00623 15377 ft 267 kts 293°
2026-04-14 13:04 -29.25265 -51.02537 15625 ft 267 kts 292°
2026-04-14 13:05 -29.24494 -51.04489 15877 ft 268 kts 292°
2026-04-14 13:05 -29.23740 -51.06415 16125 ft 268 kts 292°
2026-04-14 13:05 -29.22972 -51.08373 16376 ft 267 kts 292°
2026-04-14 13:05 -29.22203 -51.10324 16628 ft 267 kts 292°
2026-04-14 13:06 -29.21440 -51.12253 16876 ft 267 kts 292°
2026-04-14 13:06 -29.20676 -51.14177 17125 ft 267 kts 292°
2026-04-14 13:06 -29.19903 -51.16118 17376 ft 267 kts 292°
2026-04-14 13:06 -29.19138 -51.18032 17623 ft 266 kts 292°
2026-04-14 13:07 -29.18364 -51.19965 17874 ft 266 kts 292°
2026-04-14 13:07 -29.17589 -51.21897 18125 ft 266 kts 292°
2026-04-14 13:07 -29.16826 -51.23797 18372 ft 266 kts 292°
2026-04-14 13:07 -29.16049 -51.25733 18624 ft 265 kts 292°
2026-04-14 13:08 -29.15284 -51.27633 18871 ft 265 kts 292°
2026-04-14 13:08 -29.14511 -51.29555 19122 ft 265 kts 292°
2026-04-14 13:08 -29.13737 -51.31476 19373 ft 264 kts 292°
2026-04-14 13:08 -29.12974 -51.33370 19621 ft 264 kts 292°
2026-04-14 13:09 -29.12201 -51.35289 19872 ft 264 kts 292°
2026-04-14 13:09 -29.11441 -51.37173 20119 ft 263 kts 292°
2026-04-14 13:09 -29.10673 -51.39077 20369 ft 263 kts 292°
2026-04-14 13:09 -29.09902 -51.40989 20621 ft 263 kts 292°
2026-04-14 13:10 -29.09144 -51.42865 20867 ft 262 kts 292°
2026-04-14 13:10 -29.08375 -51.44770 21119 ft 262 kts 292°
2026-04-14 13:10 -29.07611 -51.46658 21368 ft 261 kts 292°
2026-04-14 13:10 -29.06858 -51.48519 21615 ft 260 kts 292°
2026-04-14 13:11 -29.06097 -51.50399 21825 ft 260 kts 292°
2026-04-14 13:11 -29.05330 -51.52293 21948 ft 263 kts 292°
2026-04-14 13:11 -29.04562 -51.54193 21997 ft 268 kts 292°
2026-04-14 13:11 -29.03771 -51.56147 22004 ft 272 kts 292°
2026-04-14 13:12 -29.02967 -51.58132 22003 ft 275 kts 292°
2026-04-14 13:12 -29.02166 -51.60108 22002 ft 278 kts 293°
2026-04-14 13:12 -29.01346 -51.62128 22001 ft 279 kts 293°
2026-04-14 13:12 -29.00534 -51.64128 22001 ft 281 kts 293°
2026-04-14 13:13 -28.99707 -51.66161 22001 ft 281 kts 293°
2026-04-14 13:13 -28.98878 -51.68200 22000 ft 282 kts 293°
2026-04-14 13:13 -28.98057 -51.70219 22000 ft 282 kts 293°
2026-04-14 13:13 -28.97225 -51.72262 22000 ft 283 kts 293°
2026-04-14 13:14 -28.96392 -51.74307 22000 ft 283 kts 293°
2026-04-14 13:14 -28.95571 -51.76322 22000 ft 283 kts 293°
2026-04-14 13:14 -28.94736 -51.78370 22000 ft 283 kts 293°
2026-04-14 13:14 -28.93912 -51.80393 22000 ft 283 kts 293°
2026-04-14 13:15 -28.93073 -51.82448 22000 ft 283 kts 293°
2026-04-14 13:15 -28.92249 -51.84468 22000 ft 283 kts 293°
2026-04-14 13:15 -28.91411 -51.86519 22000 ft 283 kts 293°
2026-04-14 13:15 -28.90584 -51.88542 22000 ft 283 kts 293°
2026-04-14 13:16 -28.89750 -51.90583 22000 ft 283 kts 293°
2026-04-14 13:16 -28.88913 -51.92629 22000 ft 283 kts 293°
2026-04-14 13:16 -28.88086 -51.94652 22000 ft 283 kts 293°
2026-04-14 13:16 -28.87247 -51.96701 22000 ft 283 kts 293°
2026-04-14 13:17 -28.86419 -51.98721 22000 ft 283 kts 293°
2026-04-14 13:17 -28.85579 -52.00770 22000 ft 283 kts 293°
2026-04-14 13:17 -28.84741 -52.02816 22000 ft 283 kts 293°
2026-04-14 13:17 -28.83903 -52.04841 22000 ft 285 kts 295°
2026-04-14 13:18 -28.82810 -52.06735 22001 ft 291 kts 306°
2026-04-14 13:18 -28.81427 -52.08441 22003 ft 296 kts 313°
2026-04-14 13:18 -28.79875 -52.10018 22002 ft 299 kts 316°
2026-04-14 13:18 -28.78235 -52.11501 22002 ft 301 kts 319°
2026-04-14 13:19 -28.76538 -52.12931 22001 ft 303 kts 320°
2026-04-14 13:19 -28.74828 -52.14314 22001 ft 304 kts 321°
2026-04-14 13:19 -28.73097 -52.15681 22000 ft 304 kts 322°
2026-04-14 13:19 -28.71346 -52.17046 22000 ft 305 kts 322°
2026-04-14 13:20 -28.69579 -52.18414 22000 ft 305 kts 322°
2026-04-14 13:20 -28.67833 -52.19759 22000 ft 305 kts 322°
2026-04-14 13:20 -28.66061 -52.21123 22000 ft 305 kts 322°
2026-04-14 13:20 -28.64313 -52.22468 22000 ft 306 kts 322°
2026-04-14 13:21 -28.62543 -52.23829 22000 ft 306 kts 322°
2026-04-14 13:21 -28.60775 -52.25189 22000 ft 306 kts 322°
2026-04-14 13:21 -28.59025 -52.26534 22000 ft 306 kts 322°
2026-04-14 13:21 -28.57248 -52.27901 22000 ft 306 kts 322°
2026-04-14 13:22 -28.55503 -52.29243 22000 ft 306 kts 322°
2026-04-14 13:22 -28.53736 -52.30601 22000 ft 306 kts 322°
2026-04-14 13:22 -28.51964 -52.31963 22000 ft 306 kts 322°
2026-04-14 13:22 -28.50217 -52.33305 22000 ft 306 kts 322°
2026-04-14 13:23 -28.48447 -52.34664 22000 ft 306 kts 322°
2026-04-14 13:23 -28.46683 -52.36019 22000 ft 306 kts 322°
2026-04-14 13:23 -28.44921 -52.37372 22000 ft 306 kts 322°
2026-04-14 13:23 -28.43177 -52.38710 22000 ft 306 kts 322°
2026-04-14 13:24 -28.41403 -52.40071 22000 ft 306 kts 322°
2026-04-14 13:24 -28.37885 -52.42766 22000 ft 306 kts 322°
2026-04-14 13:24 -28.36114 -52.44121 22000 ft 306 kts 322°
2026-04-14 13:25 -28.34362 -52.45462 22000 ft 306 kts 322°
2026-04-14 13:25 -28.32590 -52.46818 22000 ft 306 kts 322°
2026-04-14 13:26 -28.27301 -52.50861 22000 ft 306 kts 322°
2026-04-14 13:26 -28.25530 -52.52213 22000 ft 306 kts 322°
2026-04-14 13:26 -28.23779 -52.53551 22000 ft 306 kts 322°
2026-04-14 13:26 -28.22601 -52.54450 22000 ft 306 kts 322°
2026-04-14 13:27 -28.20241 -52.56251 22000 ft 306 kts 322°
2026-04-14 13:27 -28.19065 -52.57148 22000 ft 306 kts 322°
2026-04-14 13:27 -28.17301 -52.58493 22000 ft 306 kts 322°
2026-04-14 13:27 -28.15526 -52.59846 22000 ft 306 kts 322°
2026-04-14 13:28 -28.13760 -52.61192 22000 ft 306 kts 322°
2026-04-14 13:28 -28.12006 -52.62528 22000 ft 306 kts 322°
2026-04-14 13:28 -28.10225 -52.63884 22000 ft 306 kts 322°
2026-04-14 13:28 -28.08474 -52.65216 22000 ft 306 kts 322°
2026-04-14 13:29 -28.06700 -52.66566 22000 ft 306 kts 322°
2026-04-14 13:29 -28.04931 -52.67912 22000 ft 306 kts 322°
2026-04-14 13:29 -28.03179 -52.69243 22000 ft 306 kts 322°
2026-04-14 13:29 -28.01398 -52.70597 22000 ft 306 kts 322°
2026-04-14 13:30 -27.99629 -52.71941 22000 ft 306 kts 322°
2026-04-14 13:30 -27.97876 -52.73272 22000 ft 306 kts 322°
2026-04-14 13:30 -27.96106 -52.74612 22000 ft 306 kts 323°
2026-04-14 13:30 -27.94180 -52.75688 22000 ft 311 kts 335°
2026-04-14 13:31 -27.92089 -52.76375 22002 ft 314 kts 343°
2026-04-14 13:31 -27.89949 -52.76817 22002 ft 316 kts 347°
2026-04-14 13:31 -27.87750 -52.77118 22001 ft 316 kts 350°
2026-04-14 13:31 -27.85571 -52.77330 21749 ft 318 kts 351°
2026-04-14 13:32 -27.83347 -52.77491 21491 ft 319 kts 352°
2026-04-14 13:32 -27.81110 -52.77619 21238 ft 320 kts 353°
2026-04-14 13:32 -27.78907 -52.77726 20990 ft 320 kts 353°
2026-04-14 13:32 -27.76670 -52.77823 20739 ft 321 kts 353°
2026-04-14 13:33 -27.74437 -52.77913 20490 ft 321 kts 353°
2026-04-14 13:33 -27.72202 -52.77999 20240 ft 322 kts 353°
2026-04-14 13:33 -27.69963 -52.78082 19990 ft 322 kts 354°
2026-04-14 13:33 -27.67738 -52.78164 19742 ft 322 kts 354°
2026-04-14 13:34 -27.63246 -52.78326 19241 ft 322 kts 354°
2026-04-14 13:34 -27.61024 -52.78406 18993 ft 322 kts 354°
2026-04-14 13:34 -27.58772 -52.78487 18741 ft 322 kts 354°
2026-04-14 13:35 -27.56550 -52.78567 18493 ft 322 kts 354°
2026-04-14 13:35 -27.54305 -52.78647 18242 ft 322 kts 354°
2026-04-14 13:35 -27.52056 -52.78728 17991 ft 322 kts 354°
2026-04-14 13:35 -27.49834 -52.78808 17743 ft 321 kts 354°
2026-04-14 13:36 -27.47592 -52.78888 17492 ft 321 kts 354°
2026-04-14 13:36 -27.45350 -52.78968 17241 ft 321 kts 354°
2026-04-14 13:36 -27.43128 -52.79048 16992 ft 321 kts 354°
2026-04-14 13:36 -27.40889 -52.79128 16742 ft 321 kts 354°
2026-04-14 13:37 -27.38651 -52.79208 16491 ft 321 kts 354°
2026-04-14 13:37 -27.36437 -52.79287 16243 ft 321 kts 354°
2026-04-14 13:37 -27.34196 -52.79367 15992 ft 321 kts 354°
2026-04-14 13:37 -27.31964 -52.79447 15742 ft 321 kts 354°
2026-04-14 13:38 -27.29731 -52.79527 15491 ft 321 kts 354°
2026-04-14 13:38 -27.27523 -52.79606 15244 ft 320 kts 354°
2026-04-14 13:38 -27.25291 -52.79686 14993 ft 320 kts 354°
2026-04-14 13:38 -27.23059 -52.79765 14743 ft 320 kts 354°
2026-04-14 13:39 -27.20845 -52.79844 14494 ft 320 kts 354°
2026-04-14 13:39 -27.18619 -52.79923 14243 ft 319 kts 354°
2026-04-14 13:39 -27.16395 -52.80002 13992 ft 318 kts 354°
2026-04-14 13:39 -27.14186 -52.80081 13742 ft 318 kts 354°
2026-04-14 13:40 -27.11968 -52.80159 13490 ft 317 kts 354°
2026-04-14 13:40 -27.09769 -52.80238 13240 ft 316 kts 354°
2026-04-14 13:40 -27.07594 -52.80315 12992 ft 315 kts 354°
2026-04-14 13:40 -27.05394 -52.80393 12740 ft 314 kts 354°
2026-04-14 13:41 -27.03207 -52.80470 12490 ft 313 kts 354°
2026-04-14 13:41 -27.01026 -52.80548 12239 ft 313 kts 354°
2026-04-14 13:41 -26.98879 -52.80624 11991 ft 312 kts 354°
2026-04-14 13:41 -26.96696 -52.80702 11739 ft 311 kts 354°
2026-04-14 13:42 -26.94555 -52.80778 11491 ft 310 kts 354°
2026-04-14 13:42 -26.92395 -52.80855 11240 ft 309 kts 354°
2026-04-14 13:42 -26.90237 -52.80913 11001 ft 310 kts 356°
2026-04-14 13:42 -26.88088 -52.81015 10735 ft 307 kts 353°
2026-04-14 13:43 -26.85973 -52.81126 10487 ft 307 kts 354°
2026-04-14 13:43 -26.83831 -52.81212 10235 ft 306 kts 354°
2026-04-14 13:43 -26.81692 -52.81285 9984 ft 306 kts 354°
2026-04-14 13:43 -26.79582 -52.81352 9735 ft 305 kts 354°
2026-04-14 13:44 -26.77453 -52.81418 9483 ft 304 kts 354°
2026-04-14 13:44 -26.75364 -52.81483 9236 ft 303 kts 354°
2026-04-14 13:44 -26.73238 -52.81551 8983 ft 303 kts 354°
2026-04-14 13:44 -26.71160 -52.81619 8736 ft 302 kts 354°
2026-04-14 13:45 -26.69050 -52.81690 8484 ft 301 kts 354°
2026-04-14 13:45 -26.66954 -52.81761 8233 ft 300 kts 354°
2026-04-14 13:45 -26.64866 -52.81833 7982 ft 299 kts 354°
2026-04-14 13:45 -26.62788 -52.81905 7733 ft 299 kts 354°
2026-04-14 13:46 -26.60733 -52.81977 7485 ft 298 kts 354°
2026-04-14 13:46 -26.58645 -52.82050 7232 ft 297 kts 354°
2026-04-14 13:46 -26.56596 -52.82122 6984 ft 295 kts 354°
2026-04-14 13:46 -26.54578 -52.82190 6731 ft 282 kts 354°
2026-04-14 13:47 -26.52659 -52.82252 6476 ft 268 kts 354°
2026-04-14 13:47 -26.50877 -52.82311 6223 ft 251 kts 354°
2026-04-14 13:47 -26.49196 -52.82369 5966 ft 231 kts 355°
2026-04-14 13:47 -26.47645 -52.82425 5706 ft 214 kts 355°
2026-04-14 13:48 -26.46187 -52.82481 5451 ft 204 kts 355°
2026-04-14 13:48 -26.44822 -52.82534 5292 ft 192 kts 356°
2026-04-14 13:48 -26.43528 -52.82582 5209 ft 179 kts 356°
2026-04-14 13:48 -26.42281 -52.82627 5201 ft 180 kts 356°
2026-04-14 13:49 -26.41008 -52.82680 5205 ft 186 kts 355°
2026-04-14 13:49 -26.39719 -52.82852 5205 ft 192 kts 349°
2026-04-14 13:49 -26.38354 -52.83158 5211 ft 207 kts 346°
2026-04-14 13:49 -26.36937 -52.83544 5204 ft 208 kts 345°
2026-04-14 13:50 -26.35551 -52.83954 5198 ft 203 kts 343°
2026-04-14 13:50 -26.34197 -52.84368 5197 ft 200 kts 343°
2026-04-14 13:50 -26.32857 -52.84740 5153 ft 202 kts 350°
2026-04-14 13:50 -26.31466 -52.84532 4950 ft 201 kts 21°
2026-04-14 13:51 -26.30420 -52.83635 4786 ft 183 kts 47°
2026-04-14 13:51 -26.29701 -52.82491 4625 ft 178 kts 57°
2026-04-14 13:51 -26.29083 -52.81321 4463 ft 177 kts 58°
2026-04-14 13:51 -26.28440 -52.80132 4345 ft 178 kts 57°
2026-04-14 13:52 -26.27773 -52.78986 4331 ft 170 kts 56°
2026-04-14 13:52 -26.27106 -52.77917 4172 ft 172 kts 54°
2026-04-14 13:52 -26.26394 -52.76828 3952 ft 175 kts 53°
2026-04-14 13:52 -26.25671 -52.75747 3792 ft 172 kts 53°
2026-04-14 13:53 -26.24983 -52.74681 3726 ft 169 kts 55°
2026-04-14 13:53 -26.24308 -52.73596 3556 ft 173 kts 56°
2026-04-14 13:53 -26.23671 -52.72552 3428 ft 153 kts 56°
2026-04-14 13:53 -26.23087 -52.71585 3071 ft 145 kts 56°
2026-04-14 13:54 -26.22574 -52.70726 2874 ft 128 kts 56°
2026-04-14 13:54 -26.22076 -52.69912 2705 ft 123 kts 56°
2026-04-14 13:54 -26.21801 -52.69456 2703 ft 19 kts 52°
2026-04-14 13:54 -26.21725 -52.69335 2703 ft 15 kts 56°
2026-04-14 13:55 -26.21746 -52.69291 2703 ft 5 kts 182°
2026-04-14 13:55 -26.21761 -52.69291 2703 ft 0 kts 174°